Regional Weather Roundup
Issued by NWS

Home | Current Version | Previous Version | Graphics & Text | Print | Product List | Glossary On
Versions: 1 2 3 4 5 6 7 8 9 10 11 12 13 14 15 16 17 18 19 20 21 22 23 24 25 26 27 28 29 30 31 32 33 34 35 36 37 38 39 40 41 42 43 44 45 46 47 48 49 50
000
ASUS45 KTFX 212004
RWRMT
MONTANA HOURLY WEATHER ROUNDUP
NATIONAL WEATHER SERVICE GREAT FALLS MT
204 PM MDT TUE OCT 21 2014

NOTE: "FAIR" INDICATES FEW OR NO CLOUDS BELOW 12000 FEET WITH NO
SIGNIFICANT WEATHER AND/OR OBSTRUCTIONS TO VISIBILITY.

* THESE STATIONS ARE NOT UNDER NWS QUALITY CONTROL. THEY DO NOT
   REPORT WEATHER SUCH AS PRECIPITATION OR FOG.

MTZ001>007-043-212100-
WEST OF THE DIVIDE
CITY           SKY/WX    TMP DP  RH WIND       PRES   REMARKS
KALISPELL      CLOUDY    50  46  86 S10       29.83R
MISSOULA       LGT RAIN  46  45  96 SE5       29.92R
BUTTE          LGT RAIN  41  37  86 NW12      29.85S
MULLAN PASS    FOG       36  36 100 VRB5      29.92S VSB 3/4  WCI  32
* ESSEX        N/A       45  45 100 VRB2       N/A
* LINCOLN      N/A       43  41  93 S5G18      N/A
* LOOKOUT PASS N/A       42  38  86 E4G13      N/A
* POLSON       N/A       47  47 100 S2         N/A
* RONAN APT    CLOUDY    48  46  93 E5         N/A
* SEELEY LAKE  N/A       43  41  93 SW3G9      N/A
* THOMP F APT  CLOUDY    43  34  71 S19G37     N/A
$$

MTZ008-052>055-212100-
SOUTHWEST MONTANA
CITY           SKY/WX    TMP DP  RH WIND       PRES   REMARKS
BOZEMAN        PTCLDY    64  39  40 S21       29.74R
DILLON         LGT RAIN  43  39  86 SW15G26   29.86R
W YELLOWSTONE  CLOUDY    37  34  89 S22G30    29.99S WCI  26
* THREE FORKS  PTCLDY    63  46  54 S31G41     N/A
* BOULDER HILL N/A       42  37  83 NE5G12     N/A
* MONIDA PASS  N/A       44  30  58 S22G30     N/A
* RAYNOLDS PAS N/A       40  24  53 S19G27     N/A   WCI  31
* WHITEHALL    N/A       53  39  59 W19G35     N/A
* WISE RIVER   N/A       41  37  86 NW10G21    N/A
$$

MTZ009>010-012-014-046-048-049-054-212100-
EAST SLOPES AND CENTRAL MONTANA
CITY           SKY/WX    TMP DP  RH WIND       PRES   REMARKS
CUT BANK       CLOUDY    48  46  93 SW10      29.74F
GREAT FALLS    LGT RAIN  48  45  89 NW13      29.74R
HELENA         LGT RAIN  46  37  71 W12G24    29.80R
MALMSTROM AFB  RAIN      50  46  86 NW9G15    29.74R
* CONRAD       CLOUDY    48  48 100 W6         N/A
* DEARBORN     N/A       49  45  86 SW8G17     N/A
* EAST GLACIER N/A       46  40  80 W10        N/A
* MONARCH      N/A       44  39  83 NW19G26    N/A
* PENDROY      N/A       45  45 100 NW11       N/A
* ROGERS PASS  N/A       39  36  89 SE9G21     N/A   WCI  33
* SAINT MARY   N/A       49  41  74 S7G17      N/A
* SWEET GRASS  N/A       48  48 100 SW14G19    N/A
$$

MTZ011-013-016-021-035-040-045-047-050-051-212100-
NORTH CENTRAL MONTANA
CITY           SKY/WX    TMP DP  RH WIND       PRES   REMARKS
HAVRE          CLOUDY    55  48  77 W6        29.65F
LEWISTOWN      CLOUDY    70  41  35 VRB3      29.65F
* CHINOOK      CLOUDY    59  43  56 W8        29.64F
* FORT BENTON  CLOUDY    55  46  72 W13G21    29.67F
* CHESTER      N/A       55  45  69 NW13G22    N/A
* DENTON       N/A       59  47  65 N11        N/A
* GEYSER       N/A       53  42  66 W17G22     N/A
* JUDITH GAP   N/A       62  45  54 S14        N/A
$$

MTZ017>020-022>027-061-062-212100-
NORTHEAST MONTANA
CITY           SKY/WX    TMP DP  RH WIND       PRES   REMARKS
GLASGOW        PTCLDY    72  45  38 SE10      29.56F
GLENDIVE       SUNNY     70  41  35 S6        29.62F
JORDAN         PTCLDY    81  34  18 SW10      29.58F
SIDNEY         SUNNY     70  45  41 CALM      29.61F
WOLF POINT     SUNNY     72  46  40 VRB3      29.58F
* BEAVER HILL  N/A       75  41  30 S10        N/A
* CIRCLE       N/A       78  46  32 N/A        N/A
* LINDSAY DVD  N/A       75  43  32 SW4G9      N/A
* NAVAJO       N/A       74  44  34 SE8G13     N/A
* SACO         N/A       71  47  43 SW4        N/A
$$

MTZ028>042-056>058-212100-
SOUTHCENTRAL AND SOUTHEAST MONTANA
CITY           SKY/WX    TMP DP  RH WIND       PRES   REMARKS
BAKER          SUNNY     81  37  21 SW14      29.64F
BILLINGS       CLOUDY    72  34  25 W15G23    29.67F
LIVINGSTON     PTSUNNY   66  36  33 SW25G43   29.73S
MILES CITY     SUNNY     72  43  35 S5        29.61F
* LAUREL APT   CLOUDY    72  34  25 S11G20     N/A
* ROUNDUP APT  PTSUNNY   70  37  30 N/A        N/A
* ALZADA       N/A       78  41  27 S12G17     N/A
* HYSHAM       N/A       69  34  28 W11G16     N/A
* LAME DEER    N/A       79  38  23 SW11G19    N/A
* REED POINT   N/A       52  38  59 N/A        N/A
* ROSCOE HILL  N/A       64  26  24 S7G14      N/A
$$

REGIONAL REPORTS...DAKOTAS
CITY           SKY/WX    TMP DP  RH WIND       PRES   REMARKS
WILLISTON      SUNNY     72  43  35 SE12      29.60F
DICKINSON      SUNNY     75  45  34 S20       29.63F
BEACH          N/A       75  39  27 S14       29.63F
CROSBY         SUNNY     73  41  32 SE10G17   29.61F
TIOGA          SUNNY     68  41  38 SE10      29.65F
BISMARCK       SUNNY     81  45  28 S24G29    29.68F
GRAND FORKS    SUNNY     64  43  47 SE29G36   29.87F
FARGO          SUNNY     66  41  40 SE28G36   29.90F
BUFFALO SD     SUNNY     82  41  23 SW24      29.60F
RAPID CITY     HAZE      82  45  27 S17       29.75F
$$

REGIONAL REPORTS...WYOMING/IDAHO/WASHINGTON
CITY           SKY/WX    TMP DP  RH WIND       PRES   REMARKS
GILLETTE       SUNNY     77  37  24 S21G29    29.74F
SHERIDAN       PTCLDY    79  32  18 SW20      29.68F
CODY           CLOUDY   N/A N/A N/A W10G17    29.78F
YELLOWSTONE LA CLOUDY    37  32  82 W12G25    30.01F WCI  29
SALMON         CLOUDY    45  39  80 CALM      29.97R
MULLAN PASS    FOG       36  36 100 VRB5      29.92S VSB 3/4  WCI  32
SAND POINT     CLOUDY    52  45  77 SW7       29.90R
SPOKANE        PTSUNNY   54  43  67 SW15      29.92S
$$

REGIONAL REPORTS...ALBERTA
CITY           SKY/WX    TMP DP  RH WIND       PRES   REMARKS
LETHBRIDGE     CLOUDY    55  39  55 SW14G22   29.68F

$$




USA.gov is the U.S. government's official web portal to all federal, state and local government web resources and services.